Location: Recife
(8.0585°S, 34.8848°W)
Time: 13:49:52
(UTC-03:00)

Vanguard 2 - Pass Details

Date: 15 April 2026
Orbit: 553 x 2895 km, 32.9° (Epoch: 13 May)

Event Time Altitude Azimuth Distance (km) Brightness Sun altitude
Rises 19:07:33 0° 312° (NW) 4,598 12.3 -27.9°
Reaches altitude 10° 19:10:10 10° 315° (NW) 3,881 11.7 -28.5°
Maximum altitude 19:21:09 72° 38° (NE) 2,357 9.7 -31.2°
Enters shadow 19:25:45 52° 103° (ESE) 2,928 9.9 -32.3°
